Regional Weather Roundup
Issued by NWS

Home | Current Version | Previous Version | Text Only | Print | Product List | Glossary On
Versions: 1 2 3 4 5 6 7 8 9 10 11 12 13 14 15 16 17 18 19 20 21 22 23 24 25 26 27 28 29 30 31 32 33 34 35 36 37 38 39 40 41 42 43 44 45 46 47 48 49 50
000
ASUS44 KOUN 191010
RWROK

WEATHER ROUNDUP FOR OKLAHOMA
NATIONAL WEATHER SERVICE NORMAN OK
500 AM CDT FRI SEP 19 2014

NOTE: "FAIR" INDICATES FEW OR NO CLOUDS BELOW 12,000 FEET WITH NO
      SIGNIFICANT WEATHER AND/OR OBSTRUCTIONS TO VISIBILITY.

OKZ001>007-009>012-014-015-017-191100-
NORTHWEST OKLAHOMA AND THE PANHANDLE

CITY           SKY/WX    TMP DP  RH WIND       PRES   REMARKS
GAGE           CLEAR     61  61 100 CALM      29.97F
ENID/WOODRING  CLEAR     63  63 100 CALM      29.94S FOG
$$

OKZ016-021>023-033>039-044-045-191100-
SOUTHWEST OKLAHOMA

CITY           SKY/WX    TMP DP  RH WIND       PRES   REMARKS
LAWTON/REGL    CLEAR     68  65  90 NE3       29.94S
FREDERICK      CLEAR     68  66  93 NE9       29.91S
CLINTON        CLEAR     68  65  90 SE3       29.98S
HOBART         FOG       63  63 100 E6        29.96S VSB 1/2
ALTUS AFB      CLEAR     66  66 100 NE2       29.95S
$$

OKZ018>020-024>031-191100-
CENTRAL OKLAHOMA

CITY           SKY/WX    TMP DP  RH WIND       PRES   REMARKS
OKLAHOMA CITY  PTCLDY    67  64  90 CALM      29.95S
OKC/WILEY POST CLEAR     67  65  93 CALM      29.95S
OKC/TINKER AFB CLEAR     67  65  92 SE6       29.96R
STILLWATER     CLEAR     67  65  93 SE3       29.96R
GUTHRIE        CLEAR     66  65  96 CALM      29.95S
$$

OKZ008-013-054>072-191100-
NORTHEAST OKLAHOMA

CITY           SKY/WX    TMP DP  RH WIND       PRES   REMARKS
TULSA          MOCLDY    67  66  97 SE6       29.97R
TULSA/JONES    MOCLDY    66  65  96 CALM      29.96F FOG
PONCA CITY     CLEAR     66  63  90 SE7       29.96R
BARTLESVILLE   FOG       60  60 100 CALM      29.98S VSB 1/4
MUSKOGEE       CLEAR     67  65  93 S6        29.98S FOG
$$

OKZ032-040>043-046>053-073>077-191100-
SOUTH CENTRAL/SOUTHEAST OKLAHOMA

CITY           SKY/WX    TMP DP  RH WIND       PRES   REMARKS
ARDMORE/DWNTWN CLEAR     68  66  94 CALM      29.94R
MCALESTER      MOCLDY    70  67  90 CALM      29.97R
$$



USA.gov is the U.S. government's official web portal to all federal, state and local government web resources and services.